Montross, Virginia, United States (22520)
Lat: 38.09N, Lon: 76.83W
Wx Zone: VAZ075
Local Info
Past Weather Observations for Saturday, July 4, 2015

NOTE: This archive is for the closest National Weather Service station to Montross. Information may differ from the station used for current weather conditions.

Click here for Long-term Archive

Time Weather Temperature Dewpoint Humidity Pressure Winds Precip Visibility
23:52
Mostly Cloudy
72°F / 22°C 70°F / 21°C 94% 30.04 in
(1017 mb)
SSW 13.8 mph
(SSW 22 kph)
- 8SM
22:52
Mostly Cloudy
Fog And Mist
72°F / 22°C 72°F / 22°C 100% 30.01 in
(1016 mb)
Calm - 4SM
22:50
Mostly Cloudy
Fog And Mist
72°F / 22°C 72°F / 22°C 100% 30.01 in
(1016 mb)
Calm - 4SM
22:12
Mostly Cloudy
Fog And Mist
72°F / 22°C 72°F / 22°C 100% 30.01 in
(1016 mb)
Calm - 6SM
22:04
Partly Cloudy
72°F / 22°C 70°F / 21°C 94% 30.01 in
(1016 mb)
Calm - 7SM
21:52
Mostly Cloudy
72°F / 22°C 70°F / 21°C 94% 30.01 in
(1016 mb)
Calm - 7SM
21:04
Overcast
73°F / 23°C 72°F / 22°C 94% 29.98 in
(1015 mb)
Calm - 9SM
20:52
Overcast
73°F / 23°C 72°F / 22°C 94% 29.98 in
(1015 mb)
S 3.5 mph
(S 6 kph)
0.00 in
(0.00 mm)
9SM
20:19
Overcast
73°F / 23°C 72°F / 22°C 94% 29.98 in
(1015 mb)
E 3.5 mph
(E 6 kph)
- 10SM
20:09
Mostly Cloudy
73°F / 23°C 72°F / 22°C 94% 29.98 in
(1015 mb)
Calm - 10SM
19:52
Partly Cloudy
72°F / 22°C 70°F / 21°C 94% 29.98 in
(1015 mb)
ENE 3.5 mph
(ENE 6 kph)
0.11 in
(2.79 mm)
10SM
19:14
Overcast
Light Rain
73°F / 23°C 72°F / 22°C 94% 29.95 in
(1014 mb)
S 5.8 mph
(S 9 kph)
0.10 in
(2.54 mm)
6SM
18:52
Overcast
Thunder Storms
73°F / 23°C 72°F / 22°C 94% 29.95 in
(1014 mb)
SSE 5.8 mph
(SSE 9 kph)
0.38 in
(9.65 mm)
4SM
18:39
Overcast
Rain
73°F / 23°C 72°F / 22°C 94% 29.95 in
(1014 mb)
WNW 9.2 mph
(WNW 15 kph)
0.28 in
(7.11 mm)
3SM
18:33
Overcast
Rain
73°F / 23°C 72°F / 22°C 94% 29.95 in
(1014 mb)
NW 8.1 mph
(NW 13 kph)
0.23 in
(5.84 mm)
1 3/4SM
18:30
Overcast
Heavy Rain
73°F / 23°C 72°F / 22°C 94% 29.95 in
(1014 mb)
NW 6.9 mph
(NW 11 kph)
0.20 in
(5.08 mm)
1 1/4SM
18:26
Overcast
Heavy Rain
73°F / 23°C 72°F / 22°C 94% 29.95 in
(1014 mb)
NW 5.8 mph
(NW 9 kph)
0.16 in
(4.06 mm)
3/4SM
18:24
Overcast
Heavy Rain
73°F / 23°C 72°F / 22°C 94% 29.95 in
(1014 mb)
WNW 4.6 mph
(WNW 7 kph)
0.14 in
(3.56 mm)
1/2SM
18:18
Overcast
Thunder Storms
73°F / 23°C 72°F / 22°C 94% 29.95 in
(1014 mb)
SSW 8.1 mph
(SSW 13 kph)
0.08 in
(2.03 mm)
1/2SM
18:15
Overcast
Thunder Storms
73°F / 23°C 70°F / 21°C 89% 29.95 in
(1014 mb)
W 11.5 mph
(W 19 kph)
0.05 in
(1.27 mm)
1SM
18:13
Overcast
Thunder Storms
73°F / 23°C 72°F / 22°C 94% 29.95 in
(1014 mb)
WNW 15 mph
(WNW 24 kph)
0.03 in
(0.76 mm)
2SM
17:49
Overcast
Thunder Storms
75°F / 24°C 72°F / 22°C 89% 29.92 in
(1013 mb)
SE 6.9 mph
(SE 11 kph)
0.00 in
(0.00 mm)
10SM
16:52
Mostly Cloudy
79°F / 26°C 72°F / 22°C 79% 29.92 in
(1013 mb)
SSE 8.1 mph
(SSE 13 kph)
- 10SM
15:52
Mostly Cloudy
79°F / 26°C 70°F / 21°C 74% 29.92 in
(1013 mb)
E 5.8 mph
(E 9 kph)
- 10SM
14:52
Mostly Cloudy
79°F / 26°C 70°F / 21°C 74% 29.92 in
(1013 mb)
E 5.8 mph
(E 9 kph)
- 10SM
13:52
Mostly Cloudy
79°F / 26°C 70°F / 21°C 74% 29.92 in
(1013 mb)
NE 6.9 mph
(NE 11 kph)
- 10SM
12:52
Mostly Cloudy
79°F / 26°C 70°F / 21°C 74% 29.92 in
(1013 mb)
NE 8.1 mph
(NE 13 kph)
- 10SM
11:52
Mostly Cloudy
79°F / 26°C 72°F / 22°C 79% 29.92 in
(1013 mb)
NE 8.1 mph
(NE 13 kph)
- 10SM
10:52
Mostly Cloudy
81°F / 27°C 68°F / 20°C 66% 29.92 in
(1013 mb)
NNW 6.9 mph
(NNW 11 kph)
- 10SM
09:52
Mostly Cloudy
77°F / 25°C 68°F / 20°C 74% 29.89 in
(1012 mb)
NNW 6.9 mph
(NNW 11 kph)
- 10SM
08:52
Mostly Cloudy
77°F / 25°C 70°F / 21°C 79% 29.89 in
(1012 mb)
NNE 3.5 mph
(NNE 6 kph)
- 10SM
07:52
Mostly Cloudy
75°F / 24°C 70°F / 21°C 83% 29.89 in
(1012 mb)
N 4.6 mph
(N 7 kph)
- 10SM
06:52
Mostly Cloudy
73°F / 23°C 70°F / 21°C 89% 29.89 in
(1012 mb)
N 4.6 mph
(N 7 kph)
- 10SM
06:38
Mostly Cloudy
73°F / 23°C 70°F / 21°C 89% 29.89 in
(1012 mb)
N 5.8 mph
(N 9 kph)
- 9SM
06:01
Overcast
73°F / 23°C 70°F / 21°C 89% 29.86 in
(1011 mb)
NNE 4.6 mph
(NNE 7 kph)
- 10SM
05:52
Overcast
73°F / 23°C 70°F / 21°C 89% 29.86 in
(1011 mb)
NNE 4.6 mph
(NNE 7 kph)
- 10SM
05:31
Overcast
72°F / 22°C 70°F / 21°C 94% 29.86 in
(1011 mb)
NNE 4.6 mph
(NNE 7 kph)
- 10SM
04:52
Overcast
72°F / 22°C 70°F / 21°C 94% 29.86 in
(1011 mb)
ENE 4.6 mph
(ENE 7 kph)
- 10SM
03:52
Overcast
72°F / 22°C 70°F / 21°C 94% 29.86 in
(1011 mb)
ENE 8.1 mph
(ENE 13 kph)
- 10SM
02:52
Partly Cloudy
72°F / 22°C 70°F / 21°C 94% 29.86 in
(1011 mb)
E 10.4 mph
(E 17 kph)
- 10SM
01:52
Partly Cloudy
73°F / 23°C 68°F / 20°C 83% 29.89 in
(1012 mb)
ESE 10.4 mph
(ESE 17 kph)
0.00 in
(0.00 mm)
10SM
01:12
Partly Cloudy
72°F / 22°C 68°F / 20°C 88% 29.89 in
(1012 mb)
ESE 10.4 mph
(ESE 17 kph)
0.00 in
(0.00 mm)
10SM
00:52
Mostly Cloudy
Light Rain
73°F / 23°C 70°F / 21°C 89% 29.92 in
(1013 mb)
ESE 11.5 mph
(ESE 19 kph)
0.01 in
(0.25 mm)
10SM
Time Weather Temperature Dewpoint Humidity Pressure Winds Precip Visibility


Weather for websites

WeatherForYou.com, LLC is not responsible for any damages or problems caused by this service. Current weather conditions are obtained from the closest station including government and personal stations which may have varying degrees of accuracy. Weather forecasts are derived from the NOAA NDFD. Like all things, this site belongs to Jesus Christ... He just trusts us to maintain it. If you have any questions or comments email webmaster@weatherforyou.com

Copyright © 2015, WeatherForYou.com LLC. All rights reserved.